Regional Weather Roundup
Issued by NWS

Home | Current Version | Previous Version | Text Only | Print | Product List | Glossary On
Versions: 1 2 3 4 5 6 7 8 9 10 11 12 13 14 15 16 17 18 19 20 21 22 23 24 25 26 27 28 29 30 31 32 33 34 35 36 37 38 39 40 41 42 43 44 45 46 47 48 49 50
000
ASUS42 KFFC 041803
RWRGA
WEATHER ROUNDUP FOR GEORGIA
NATIONAL WEATHER SERVICE PEACHTREE CITY GA
200 PM EDT MON MAY 04 2015

NOTE: "FAIR" INDICATES FEW OR NO CLOUDS BELOW 12,000 FEET WITH NO
SIGNIFICANT WEATHER AND/OR OBSTRUCTIONS TO VISIBILITY.

* = USE WITH CAUTION. THE STATIONS MARKED WITH AN ASTERISK MAY NOT
REPORT WEATHER SUCH AS PRECIPITATION, FOG, OR THUNDER AND ARE NOT
QUALITY CONTROLLED BY NWS.

THE REMARK "TC" DENOTES TEMPERATURE READING IN DEGREES CELSIUS.

GAZ001>058-041900-
NORTH GEORGIA

CITY           SKY/WX    TMP DP  RH WIND       PRES   REMARKS
ATLANTA        MOSUNNY   80  49  33 VRB6      30.30F
6HR MIN TEMP:  62; 6HR MAX TEMP:  80;

ATHENS         PTSUNNY   80  51  36 SE10G21   30.31F
6HR MIN TEMP:  59; 6HR MAX TEMP:  81;

CHAMBLEE       MOSUNNY   78  50  37 SW8       30.30F
6HR MIN TEMP:  59; 6HR MAX TEMP:  80;

PEACHTREE CITY MOSUNNY   81  49  32 E8        30.30F
6HR MIN TEMP:  54; 6HR MAX TEMP:  81;

ROME           SUNNY     92  50  23 NE3       30.28F
6HR MIN TEMP:  60; 6HR MAX TEMP: 101;

WEST ATLANTA   SUNNY     79  48  33 E8        30.29F
6HR MIN TEMP:  56; 6HR MAX TEMP:  80;

GAINESVILLE    PTSUNNY   77  49  37 NW6       30.33F
6HR MIN TEMP:  60; 6HR MAX TEMP:  77;

CARTERSVILLE   PTSUNNY   79  50  36 CALM      30.29F
6HR MIN TEMP:  56; 6HR MAX TEMP:  81;



CITY           SKY/WX    TMP DP  RH WIND       PRES   REMARKS
DALTON*        MOSUNNY   77  52  41 SW3       30.30F
LAWRENCEVILLE* PTSUNNY   79  46  31 CALM      30.31F
MARIETTA       PTSUNNY   77  49  37 CALM      30.30F
KENNESAW*      MOSUNNY   79  50  36 VRB3      30.30F
BLAIRSVILLE*     N/A     74 -18   2 W5        30.32F
$$

GAZ059>098-102>109-041900-
CENTRAL GEORGIA

CITY           SKY/WX    TMP DP  RH WIND       PRES   REMARKS
AUGUSTA-BUSH   SUNNY     79  49  34 SE3       30.30F
6HR MIN TEMP:  56; 6HR MAX TEMP:  81;

AUGUSTA-DANIEL PTSUNNY   81  52  36 VRB6      30.31F
6HR MIN TEMP:  62; 6HR MAX TEMP:  81; 6HR PCP: TRACE;

COLUMBUS       PTSUNNY   79  51  37 VRB3      30.27F
6HR MIN TEMP:  57; 6HR MAX TEMP:  79;

MACON          SUNNY     77  53  43 CALM      30.29F
6HR MIN TEMP:  59; 6HR MAX TEMP:  80;

ROBINS AFB     SUNNY     80  53  38 E7        30.29F


CITY           SKY/WX    TMP DP  RH WIND       PRES   REMARKS
LAGRANGE*      PTSUNNY   81  53  38 CALM      30.29F
SYLVANIA*      MOSUNNY   80  59  49 S3        30.31F
MILLEDGEVILLE* MOSUNNY   79  54  41 CALM      30.30F
$$

GAZ099>101-110>166-041900-
SOUTH GEORGIA

CITY           SKY/WX    TMP DP  RH WIND       PRES   REMARKS
SAVANNAH       PTSUNNY   80  53  39 E14G22    30.31S
6HR MIN TEMP:  61; 6HR MAX TEMP:  81;

VALDOSTA       MOSUNNY   81  49  32 E10       30.26F
6HR MIN TEMP:  59; 6HR MAX TEMP:  83;

ALMA           MOSUNNY   81  55  40 E7        30.28F
6HR MIN TEMP:  58; 6HR MAX TEMP:  82;

ST SIMONS      SUNNY     78  59  51 E13       30.31S
6HR MIN TEMP:  66; 6HR MAX TEMP:  79;

ALBANY         MOSUNNY   82  49  31 SE9G18    30.29F
HUNTER AFB     MOSUNNY   78  58  50 SE7       30.29F
MOODY AFB      MOSUNNY   81  50  33 VRB5      30.25F
BRUNSWICK      MOSUNNY   81  54  39 E13G18    30.31F


CITY           SKY/WX    TMP DP  RH WIND       PRES   REMARKS
BAINBRIDGE*    SUNNY     86  52  30 NE9G16    30.25F
MOULTRIE*      MOSUNNY   81  50  34 SE7       30.27F
VIDALIA*       MOSUNNY   81  55  41 E9        30.29F
WAYCROSS*      MOSUNNY   83  62  48 SE9       30.28S
DOUGLAS*       MOSUNNY   81  52  36 E8        30.29F
$$


USA.gov is the U.S. government's official web portal to all federal, state and local government web resources and services.